Starlink 35202

operational
NORAD ID: 65647 Int'l Des: 2025-210 Owner: SPXS Country: US Constellation: starlink
LEOCIRCULAR

About Starlink 35202

Description loading...

Live Position

Loading 3D Globe...

Upcoming Passes

Altitude History

Altitude vs Time

uPlot chart will show altitude changes over time

Two-Line Element Set

1 65647U 25210AB 26061.08014164 .00014319 00000-0 49493-3 0 9997
2 65647 53.1600 342.5872 0001260 86.6006 273.5139 15.30182229 26563
Epoch: Mar 2, 2026 • Age: 26 hours

Current Status

Altitude 475.1 km
Velocity 7.63 km/s
Sub-Earth Point 14.44°N, 46.15°W
Launch Date Sep 18, 2025
Age 0.4 years
Type internet

Technical Details

Classification Payload
Mass 575.00 kg
Dry Mass 530.00 kg
Total Mass 575.00 kg
Length 0.30 m
Diameter 4.10 m
Span 29.00 m
Shape Box + pan
Manufacturer SPXS
Bus Type Starlink V2MO
Phase Status In Orbit
Owner/State SPXS/US

Large Constellations

Loading constellations...